Eveleth, MN

1:08 AM CDT on June 26, 2017 (GMT -0500)
Eveleth-Virginia Municipal

Weather History for KEVM - August, 2014

Change the Weather History Date:

Monday, August 25, 2014

  Actual Average Record
Temperature  
Mean Temperature 62 °F -  
Max Temperature 71 °F 73 °F 91 °F (2013)
Min Temperature 51 °F 50 °F 32 °F (2008)
Degree Days  
Heating Degree Days 3    
Growing Degree Days 12 (Base 50)    
Moisture  
Dew Point 55 °F    
Average Humidity 78    
Maximum Humidity 100    
Minimum Humidity 46    
Precipitation  
Precipitation 0.00 in - - ()
Sea Level Pressure  
Sea Level Pressure 29.90 in    
Wind  
Wind Speed 8 mph (WSW)    
Max Wind Speed 23 mph    
Max Gust Speed 33 mph    
Visibility 7 miles    
Events Fog    
Averages and records for this station are not official NWS values.
T = Trace of Precipitation, MM = Missing Value Source: NWS Daily Summary

Daily Weather History Graph

Daily Weather History Graph

Search for Another Location

Airport or City:

Trip Planner

Search our weather history database for the weather conditions in past years. The results will help you decide how hot, cold, wet, or windy it might be!

Date:

Astronomy

Aug. 25, 2014 Rise Set
Actual Time 6:19 AM CDT 8:03 PM CDT
Civil Twilight 5:47 AM CDT 8:35 PM CDT
Nautical Twilight 5:07 AM CDT 9:15 PM CDT
Astronomical Twilight 4:23 AM CDT 9:58 PM CDT
Moon 6:29 AM CDT (8/25) 7:48 PM CDT (8/25)
Length of Visible Light 14h 48m
Length of Day
13h 44m
New Moon, 0% of the Moon is Illuminated
Aug 25
New Moon
Sep 2
First Quarter
Sep 8
Full
Sep 15
Last Quarter
Sep 24
New

Hourly Weather History & Observations

Time (CDT) Temp. Dew Point Humidity Pressure Visibility Wind Dir Wind Speed Gust Speed Precip Events Conditions
12:11 AM 69.8 °F 68.0 °F 94% 29.86 in 10.0 mi SSW 3.5 mph - N/A   Mostly Cloudy
12:32 AM 68.0 °F 66.2 °F 94% 29.88 in 10.0 mi South 5.8 mph - N/A   Scattered Clouds
12:51 AM 68.0 °F 64.4 °F 88% 29.88 in 7.0 mi SW 4.6 mph - N/A   Scattered Clouds
1:11 AM 66.2 °F 64.4 °F 94% 29.87 in 10.0 mi WSW 3.5 mph - N/A   Clear
1:32 AM 64.4 °F 62.6 °F 94% 29.86 in 5.0 mi Calm Calm - N/A   Clear
1:51 AM 64.4 °F 62.6 °F 94% 29.86 in 0.2 mi Calm Calm - N/A Fog Fog
2:11 AM 62.6 °F 62.6 °F 100% 29.86 in 0.2 mi Calm Calm - N/A Fog Fog
2:32 AM 62.6 °F 60.8 °F 94% 29.86 in 0.2 mi Calm Calm - N/A Fog Fog
2:51 AM 60.8 °F 59.0 °F 94% 29.86 in 0.2 mi Calm Calm - N/A Fog Fog
3:11 AM 59.0 °F 59.0 °F 100% 29.86 in 0.2 mi Calm Calm - N/A Fog Fog
3:31 AM 60.8 °F 59.0 °F 94% 29.87 in 0.2 mi Calm Calm - N/A Fog Fog
4:12 AM 59.0 °F 59.0 °F 100% 29.88 in 0.5 mi Calm Calm - N/A Fog Fog
4:31 AM 57.2 °F 55.4 °F 94% 29.88 in 0.2 mi Calm Calm - N/A Fog Fog
4:51 AM 57.2 °F 55.4 °F 94% 29.88 in 0.5 mi Calm Calm - N/A Fog Fog
5:12 AM 55.4 °F 55.4 °F 100% 29.87 in 0.2 mi Calm Calm - N/A Fog Fog
5:31 AM 57.2 °F 55.4 °F 94% 29.86 in 0.2 mi Calm Calm - N/A Fog Fog
5:51 AM 53.6 °F 53.6 °F 100% 29.86 in 0.5 mi Calm Calm - N/A Fog Fog
6:11 AM 53.6 °F 53.6 °F 100% 29.86 in 0.2 mi Calm Calm - N/A Fog Fog
6:31 AM 55.4 °F 55.4 °F 100% 29.86 in 0.2 mi Calm Calm - N/A Fog Fog
7:11 AM 55.4 °F 55.4 °F 100% 29.86 in 0.5 mi Calm Calm - N/A Fog Fog
7:31 AM 59.0 °F 59.0 °F 100% 29.85 in 10.0 mi Calm Calm - N/A   Clear
7:52 AM 60.8 °F 60.8 °F 100% 29.86 in 10.0 mi South 4.6 mph - N/A   Clear
8:11 AM 62.6 °F 60.8 °F 94% 29.86 in 10.0 mi South 6.9 mph - N/A   Clear
8:31 AM 62.6 °F 60.8 °F 94% 29.86 in 10.0 mi South 10.4 mph - N/A   Clear
9:11 AM 64.4 °F 60.8 °F 88% 29.86 in 10.0 mi SSW 15.0 mph 18.4 mph N/A   Clear
9:31 AM 68.0 °F 60.8 °F 78% 29.85 in 10.0 mi SSW 15.0 mph 23.0 mph N/A   Scattered Clouds
9:52 AM 71.6 °F 62.6 °F 73% 29.84 in 10.0 mi SSW 13.8 mph 25.3 mph N/A   Clear
10:11 AM 71.6 °F 60.8 °F 69% 29.83 in 10.0 mi South 20.7 mph 26.5 mph N/A   Clear
10:31 AM 71.6 °F 59.0 °F 64% 29.84 in 10.0 mi SSW 20.7 mph 26.5 mph N/A   Clear
10:52 AM 71.6 °F 55.4 °F 57% 29.84 in 10.0 mi SW 16.1 mph 27.6 mph N/A   Clear
11:11 AM 71.6 °F 51.8 °F 50% 29.86 in 10.0 mi SW 21.9 mph 33.4 mph N/A   Clear
11:32 AM 71.6 °F 50.0 °F 46% 29.86 in 10.0 mi WSW 19.6 mph 31.1 mph N/A   Clear
11:52 AM 71.6 °F 51.8 °F 50% 29.86 in 10.0 mi WSW 16.1 mph 24.2 mph N/A   Clear
12:11 PM 71.6 °F 50.0 °F 46% 29.87 in 10.0 mi SW 18.4 mph 27.6 mph N/A   Clear
12:32 PM 71.6 °F 50.0 °F 46% 29.88 in 10.0 mi SW 23.0 mph 27.6 mph N/A   Clear
12:52 PM 69.8 °F 50.0 °F 49% 29.88 in 10.0 mi WSW 23.0 mph 29.9 mph N/A   Clear
1:11 PM 71.6 °F 51.8 °F 50% 29.88 in 10.0 mi WSW 17.3 mph 26.5 mph N/A   Clear
1:31 PM - - N/A% 29.88 in 10.0 mi WSW 18.4 mph 25.3 mph N/A   Scattered Clouds
1:52 PM 69.8 °F 51.8 °F 53% 29.88 in 10.0 mi WSW 16.1 mph 28.8 mph N/A   Scattered Clouds
2:11 PM - - N/A% - 10.0 mi West 21.9 mph 26.5 mph N/A   Scattered Clouds
2:32 PM 71.6 °F 53.6 °F 53% 29.90 in 7.0 mi SW 23.0 mph 26.5 mph N/A   Scattered Clouds
2:51 PM 69.8 °F 51.8 °F 53% 29.90 in 10.0 mi WSW 23.0 mph 28.8 mph N/A   Scattered Clouds
3:11 PM 68.0 °F 51.8 °F 56% 29.90 in 10.0 mi WSW 19.6 mph 23.0 mph N/A   Scattered Clouds
3:32 PM 64.4 °F 50.0 °F 59% 29.91 in 7.0 mi WSW 18.4 mph 25.3 mph N/A   Mostly Cloudy
3:51 PM 64.4 °F 51.8 °F 64% 29.91 in 10.0 mi WSW 17.3 mph 27.6 mph N/A   Mostly Cloudy
4:11 PM 64.4 °F 51.8 °F 64% 29.91 in 10.0 mi WSW 13.8 mph 23.0 mph N/A   Mostly Cloudy
4:32 PM 62.6 °F 51.8 °F 68% 29.91 in 10.0 mi WSW 18.4 mph 24.2 mph N/A   Mostly Cloudy
4:52 PM 62.6 °F 51.8 °F 68% 29.92 in 7.0 mi WSW 17.3 mph 26.5 mph N/A   Mostly Cloudy
5:11 PM 62.6 °F 51.8 °F 68% 29.92 in 10.0 mi WSW 10.4 mph 20.7 mph N/A   Mostly Cloudy
5:32 PM 62.6 °F 51.8 °F 68% 29.92 in 10.0 mi WSW 15.0 mph 20.7 mph N/A   Mostly Cloudy
5:51 PM 62.6 °F 51.8 °F 68% 29.93 in 10.0 mi WSW 15.0 mph 23.0 mph N/A   Mostly Cloudy
6:12 PM 62.6 °F 51.8 °F 68% 29.93 in 10.0 mi WSW 15.0 mph 19.6 mph N/A   Mostly Cloudy
6:31 PM 62.6 °F 51.8 °F 68% 29.93 in 10.0 mi WSW 11.5 mph 21.9 mph N/A   Mostly Cloudy
6:51 PM 62.6 °F 51.8 °F 68% 29.93 in 10.0 mi SW 13.8 mph 18.4 mph N/A   Mostly Cloudy
7:12 PM 62.6 °F 51.8 °F 68% 29.94 in 10.0 mi WSW 12.7 mph 18.4 mph N/A   Overcast
7:31 PM 62.6 °F 51.8 °F 68% 29.95 in 10.0 mi WSW 11.5 mph 18.4 mph N/A   Overcast
7:51 PM 59.0 °F 50.0 °F 72% 29.96 in 10.0 mi West 13.8 mph 21.9 mph N/A   Overcast
8:12 PM 59.0 °F 51.8 °F 77% 29.97 in 10.0 mi West 11.5 mph 16.1 mph N/A   Mostly Cloudy
8:31 PM 59.0 °F 51.8 °F 77% 29.98 in 10.0 mi West 8.1 mph - N/A   Overcast
9:11 PM 57.2 °F 50.0 °F 77% 29.99 in 10.0 mi West 8.1 mph - N/A   Overcast
9:31 PM 57.2 °F 50.0 °F 77% 29.99 in 10.0 mi West 9.2 mph 17.3 mph N/A   Overcast
10:11 PM 57.2 °F 50.0 °F 77% 30.00 in 10.0 mi WNW 11.5 mph 16.1 mph N/A   Mostly Cloudy
10:31 PM 53.6 °F 50.0 °F 88% 30.00 in 7.0 mi West 12.7 mph 16.1 mph N/A   Mostly Cloudy
10:52 PM 53.6 °F 50.0 °F 88% 30.00 in 10.0 mi West 10.4 mph 18.4 mph N/A   Mostly Cloudy
11:11 PM 53.6 °F 48.2 °F 82% 30.01 in 10.0 mi West 10.4 mph - N/A   Mostly Cloudy
11:31 PM 53.6 °F 50.0 °F 88% 30.02 in 3.0 mi West 16.1 mph 23.0 mph N/A   Overcast
11:52 PM 51.8 °F 50.0 °F 94% 30.02 in 10.0 mi West 9.2 mph - N/A   Overcast